Location: Les Chemineaux
(47.3024°N, 1.5104°E)
Time: 22:14:53
(UTC+00:00)

Meteor 2-15 - Pass Details

Date: 19 May 2025
Orbit: 935 x 956 km, 82.5° (Epoch: 11 June)

Event Time Altitude Azimuth Distance (km) Brightness Sun altitude
Rises 22:36:21 0° 351° (N) 3,626 9.0 -20.7°
Reaches altitude 10° 22:38:52 10° 354° (N) 2,674 7.9 -20.8°
Maximum altitude 22:44:59 73° 79° (E) 984 4.4 -21.1°
Enters shadow 22:47:15 40° 154° (SSE) 1,346 4.7 -21.2°
